Вернуться в каталог

STARLINK-5977

АктивенСвязьVLEO
NORAD 56791·PAYLOAD·🇺🇸 United States

Запущен May 31, 2023 с Vandenberg Space Force Base

Loading…

Ближайшие Пролёты (ближайшие 24 часа)

TLE

СвежийSource: CelesTrak SupGP

Эпоха: Sep 14, 2026, 21:17 UTC

1 56791C 23078AA  26257.88729167  .00030142  00000+0  25258-2 0  2578
2 56791  70.0009 227.3203 0003275 266.2261  60.3200 14.98318926    10

Отслеживайте STARLINK-5977 в реальном времени с AllMySat

Download on the App Store